Flag Weather past 2 weeks in Charlotte, North Carolina, U.S.A.

Now
73 °F

Scattered clouds.


Feels Like: 77 °F
Forecast: 58 / 71 °F
Wind: 15 mph from Southwest

Location: Charlotte / Douglas International Airport

Current Time: Nov 24, 2014 at 4:53:00 PM

Latest Report: Nov 24, 2014 at 3:52 PM


Visibility: 10 mi

Pressure: 29.75 "Hg

Humidity: 44%

Dew point: 50 °F

Location of CharlotteLocation

Historic Weather in Charlotte — Graph

°F

Charlotte temperature yesterday

Maximum temperature yesterday: 64 °F (at 9:00 PM)
Minimum temperature yesterday: 43 °F (at 6:52 AM)
Average temperature yesterday: 51 °F

Past Weeks' High & Low Weather Summary

 TemperatureHumidityPressure
High76 °F (Nov 12, 12:52 PM)97% (Nov 10, 4:52 AM)30.58 "Hg (Nov 10, 4:52 AM)
Low16 °F (Nov 19, 4:52 AM)15% (Nov 21, 2:52 PM)29.64 "Hg (Nov 17, 1:52 PM)
Average46 °F54%30.13 "Hg
* Reported Nov 9 2:52 PM — Nov 24 2:52 PM, Charlotte, Weather by CustomWeather, © 2014

Note: Actual official high and low records may vary slightly from our data, if they occured in-between our weather recording intervals... More about our weather records

Advertising

Charlotte weather history for previous 24 hours

 ConditionsComfort  
Time TempWeatherWind HumidityBarometerVisibility
2:52 PM
Nov 24
74 °FScattered clouds.10 mph48%29.75 "Hg10 mi
1:52 PM73 °FPartly sunny.10 mph55%29.75 "Hg10 mi
12:52 PM71 °FPartly sunny.10 mph61%29.77 "Hg10 mi
11:52 AM68 °FMostly cloudy.13 mph70%29.78 "Hg10 mi
10:52 AM65 °FOvercast.10 mph76%29.81 "Hg10 mi
9:52 AM64 °FOvercast.14 mph75%29.80 "Hg10 mi
8:52 AM63 °FPartly sunny.12 mph78%29.79 "Hg10 mi
7:52 AM61 °FMostly cloudy.13 mph83%29.79 "Hg10 mi
6:52 AM60 °FPassing clouds.12 mph83%29.76 "Hg10 mi
5:52 AM61 °FOvercast.10 mph81%29.76 "Hg10 mi
4:52 AM60 °FPassing clouds.9 mph80%29.76 "Hg10 mi
3:52 AM60 °FPassing clouds.10 mph80%29.75 "Hg10 mi
2:52 AM61 °FPassing clouds.12 mph81%29.75 "Hg10 mi
1:52 AM61 °FPassing clouds.10 mph81%29.73 "Hg10 mi
12:52 AM63 °FPassing clouds.14 mph81%29.72 "Hg10 mi
12:03 AM64 °FOvercast.18 mph83%29.73 "Hg10 mi
11:52 PM
Nov 23
64 °FPartly cloudy.14 mph84%29.72 "Hg10 mi
10:52 PM64 °FMostly cloudy.14 mph87%29.72 "Hg10 mi
9:52 PM64 °FOvercast.15 mph90%29.73 "Hg10 mi
9:00 PM64 °FLight rain. Fog.10 mph88%29.78 "Hg2 mi
7:52 PM60 °FLight rain. Fog.18 mph93%29.76 "Hg2 mi
6:52 PM58 °FHeavy rain. Fog.14 mph93%29.82 "Hg2 mi
5:52 PM56 °FLight rain. Fog.16 mph93%29.83 "Hg2 mi
4:52 PM55 °FLight rain. Fog.14 mph90%29.86 "Hg2 mi
Weather by CustomWeather, © 2014

See weather overviewHow to use our weather pages